EW6418 Weather Reports


time (UTC)temp
C
wind
direction
speed
KPH
gust
KPH
rain 1hr
cm
rain 24hr
cm
rain mn
cm
humidity
%
barometer
mb
20260903060034 22 184 0.0 0.0 0.00 0.00 0.00 100 1020.1
20260903054531 22 184 0.0 1.6 0.00 0.00 0.00 100 1020.1
20260903053030 22 184 0.0 1.6 0.00 0.00 0.00 100 1020.0
20260903051529 22 184 0.0 1.6 0.00 0.00 0.00 100 1020.0
20260903050027 22 184 0.0 0.0 0.00 0.00 0.00 100 1019.9
20260903044525 22 184 0.0 0.0 0.00 0.00 0.00 100 1019.7
20260903043023 23 184 0.0 0.0 0.00 0.00 0.00 100 1019.7
20260903041526 23 184 0.0 1.6 0.00 0.00 0.00 100 1019.7
20260903040018 23 184 0.0 0.0 0.00 0.00 0.00 100 1019.7
20260903034515 23 184 0.0 0.0 0.00 0.00 0.00 100 1019.7
20260903033016 23 360 0.0 0.0 0.00 0.00 0.00 100 1019.8
20260903031514 23 184 0.0 0.0 0.00 0.00 0.00 100 1020.0
20260903030018 24 184 0.0 0.0 0.00 0.00 0.00 100 1020.0
20260903024513 24 184 0.0 0.0 0.00 0.00 0.00 100 1020.1
20260903023013 24 184 0.0 0.0 0.00 0.00 0.00 100 1020.1
20260903021513 25 184 0.0 0.0 0.00 0.00 0.00 100 1020.1
20260903020013 25 184 0.0 0.0 0.00 0.00 0.00 100 1020.1
20260903014511 25 184 0.0 0.0 0.00 0.00 0.00 100 1020.0
20260903013016 26 184 0.0 0.0 0.00 0.00 0.00 100 1019.9
20260903011514 26 184 0.0 0.0 0.00 0.00 0.00 100 1019.8
20260903010019 27 184 0.0 0.0 0.00 0.00 0.00 100 1019.6
20260903004509 27 184 0.0 0.0 0.00 0.00 0.00 100 1019.3
20260903003009 28 184 0.0 1.6 0.00 0.00 0.00 100 1019.2
20260903001508 29 184 0.0 3.2 0.00 0.00 0.00 100 1019.1
20260903000009 29 184 0.0 3.2 0.00 0.00 0.00 100 1019.2
20260902234507 30 188 1.6 3.2 0.00 0.00 0.00 100 1019.1
20260902233006 30 189 3.2 6.4 0.00 0.00 0.00 100 1019.0
20260902231506 31 173 3.2 6.4 0.00 0.00 0.00 100 1019.1
20260902230002 32 209 4.8 9.7 0.00 0.00 0.00 100 1019.2
20260902224605 32 210 3.2 8.0 0.00 0.00 0.00 100 1019.2
20260902223056 32 223 3.2 12.9 0.00 0.00 0.00 100 1019.1
20260902221603 33 214 4.8 11.3 0.00 0.00 0.00 100 1019.2
20260902220056 33 227 4.8 12.9 0.00 0.00 0.00 100 1019.4
20260902214540 33 219 6.4 12.9 0.00 0.00 0.00 100 1019.3
20260902213039 33 165 6.4 14.5 0.00 0.00 0.00 100 1019.4
20260902211532 33 212 6.4 16.1 0.00 0.00 0.00 100 1019.4
20260902210026 33 229 4.8 12.9 0.00 0.00 0.00 100 1019.5
20260902204525 33 194 6.4 16.1 0.00 0.00 0.00 100 1019.6
20260902203017 33 216 6.4 16.1 0.00 0.00 0.00 100 1019.7
20260902201534 33 217 8.0 19.3 0.00 0.00 0.00 100 1019.8
20260902200009 33 250 4.8 16.1 0.00 0.00 0.00 100 1019.9
20260902194512 34 229 4.8 14.5 0.00 0.00 0.00 100 1020.2
20260902193107 33 215 6.4 17.7 0.00 0.00 0.00 100 1020.5
20260902191624 33 252 8.0 17.7 0.00 0.00 0.00 100 1020.6
20260902190053 33 196 8.0 19.3 0.00 0.00 0.00 100 1020.7
20260902184549 33 214 8.0 17.7 0.00 0.00 0.00 100 1020.8
20260902183054 33 184 9.7 16.1 0.00 0.00 0.00 100 1020.9
20260902181540 33 232 1.6 14.5 0.00 0.00 0.00 100 1021.0
20260902180039 33 202 9.7 16.1 0.00 0.00 0.00 100 1021.2
20260902174537 33 240 3.2 12.9 0.00 0.00 0.00 100 1021.2
20260902173031 32 252 6.4 14.5 0.00 0.00 0.00 100 1021.4
20260902171529 32 202 8.0 14.5 0.00 0.00 0.00 100 1021.5
20260902170023 32 202 8.0 16.1 0.00 0.00 0.00 100 1021.7
20260902164516 32 200 4.8 16.1 0.00 0.00 0.00 100 1021.7
20260902163012 32 188 6.4 11.3 0.00 0.00 0.00 100 1021.9
20260902161511 32 218 3.2 12.9 0.00 0.00 0.00 100 1022.1
20260902160007 31 213 4.8 11.3 0.00 0.00 0.00 100 1022.2
20260902154502 31 194 1.6 11.3 0.00 0.00 0.00 100 1022.2
20260902153058 31 235 1.6 14.5 0.00 0.00 0.00 100 1022.2
20260902151552 31 242 6.4 12.9 0.00 0.00 0.00 100 1022.3
20260902150048 30 213 4.8 9.7 0.00 0.00 0.00 100 1022.4
20260902144544 30 181 4.8 11.3 0.00 0.00 0.00 100 1022.4
20260902143038 29 207 4.8 12.9 0.00 0.00 0.00 100 1022.3
20260902141534 28 215 3.2 9.7 0.00 0.00 0.00 100 1022.4
20260902140032 28 192 3.2 8.0 0.00 0.00 0.00 100 1022.4
20260902134535 27 209 4.8 8.0 0.00 0.00 0.00 100 1022.3
20260902133025 26 360 3.2 9.7 0.00 0.00 0.00 100 1022.4
20260902131536 25 360 3.2 9.7 0.00 0.00 0.00 100 1022.5
20260902130019 25 360 4.8 12.9 0.00 0.00 0.00 100 1022.3
20260902124513 23 360 4.8 9.7 0.00 0.00 0.00 100 1022.3
20260902123012 23 360 3.2 6.4 0.00 0.00 0.00 100 1022.2
20260902121511 22 360 1.6 4.8 0.00 0.00 0.00 100 1022.2
20260902120010 21 202 0.0 0.0 0.00 0.00 0.00 100 1022.1
20260902114513 21 202 0.0 0.0 0.00 0.00 0.00 100 1022.1
20260902113006 21 202 0.0 3.2 0.00 0.00 0.00 100 1021.8
20260902111506 21 202 0.0 3.2 0.00 0.00 0.00 100 1021.8
20260902110007 21 202 0.0 1.6 0.00 0.00 0.00 100 1021.7
20260902104505 21 202 0.0 3.2 0.00 0.00 0.00 100 1021.7
20260902103006 21 202 0.0 1.6 0.00 0.00 0.00 100 1021.8
20260902101503 21 202 0.0 3.2 0.00 0.00 0.00 100 1021.7
20260902100003 21 202 0.0 1.6 0.00 0.00 0.00 100 1021.6
20260902094501 21 202 0.0 0.0 0.00 0.00 0.00 100 1021.6
20260902093000 21 202 0.0 0.0 0.00 0.00 0.00 100 1021.7
20260902091600 21 202 0.0 0.0 0.00 0.00 0.00 100 1021.6
20260902090114 21 202 0.0 1.6 0.00 0.00 0.00 100 1021.6
20260902084601 21 202 0.0 1.6 0.00 0.00 0.00 100 1021.6
20260902083038 21 202 0.0 0.0 0.00 0.00 0.00 100 1021.4
20260902081536 21 202 0.0 0.0 0.00 0.00 0.00 100 1021.3
20260902080037 21 202 0.0 0.0 0.00 0.00 0.00 100 1021.2
20260902074533 21 202 0.0 0.0 0.00 0.00 0.00 100 1021.0
20260902073032 21 202 0.0 0.0 0.00 0.00 0.00 100 1020.9
20260902071533 21 202 0.0 1.6 0.00 0.00 0.00 100 1020.8
20260902070031 22 202 0.0 1.6 0.00 0.00 0.00 100 1020.7
20260902064533 22 202 0.0 0.0 0.00 0.00 0.00 100 1020.6
20260902063027 22 202 0.0 0.0 0.00 0.00 0.00 100 1020.6
20260902061545 22 202 0.0 0.0 0.00 0.00 0.00 100 1020.7